Regional Weather Roundup
Issued by NWS

Home | Current Version | Previous Version | Text Only | Print | Product List | Glossary Off
Versions: 1 2 3 4 5 6 7 8 9 10 11 12 13 14 15 16 17 18 19 20 21 22 23 24 25 26 27 28 29 30 31 32 33 34 35 36 37 38 39 40 41 42 43 44 45 46 47 48 49 50

000
ASUS43 KMPX 310310
RWRMN
WEATHER ROUNDUP FOR MINNESOTA
NATIONAL WEATHER SERVICE TWIN CITIES/CHANHASSEN MN
1000 PM CDT WED JUL 30 2014


NOTE: "FAIR" INDICATES FEW OR NO CLOUDS BELOW 12,000 FEET WITH NO
SIGNIFICANT WEATHER AND/OR OBSTRUCTIONS TO VISIBILITY. N/A MEANS
CURRENT SKY AND/OR WEATHER CONDITIONS ARE NOT AVAILABLE.

MNZ060>063-068>070-310400-
   Twin Cities Metro

CITY           SKY/WX    TMP DP  RH WIND       PRES   REMARKS
TWIN CITIES    CLEAR     73  57  57 W7        30.04R
ST PAUL        CLEAR     71  56  58 W5        30.03S
CRYSTAL        CLEAR     71  56  58 W5        30.03R
BLAINE         CLEAR     72  57  60 W5        30.04R
LAKEVILLE      CLEAR     63  57  82 CALM      30.05R
EDEN PRAIRIE   CLEAR     70  58  65 W5        30.04R
SOUTH ST PAUL  CLEAR     72  56  57 W5        30.03S
LAKE ELMO      FAIR      64  55  72 CALM      30.04S
$$
MNZ001>005-007-008-013>017-022>024-027-028-310400-
   Northwest Minnesota

CITY           SKY/WX    TMP DP  RH WIND       PRES   REMARKS
BEMIDJI        CLEAR     62  54  74 W3        30.05R
HALLOCK        CLEAR     68  61  77 W5        30.03R
ROSEAU           N/A     70  61  73 W6        30.03R
WARROAD        CLEAR     66  61  82 W5        30.02S
THIEF RVR FALL CLEAR     64  59  82 W3        30.05R
CROOKSTON      CLEAR     68  61  77 CALM      30.05S
FOSSTON        CLEAR     57  48  72 CALM      30.06S
DETROIT LAKES  CLEAR     66  59  77 CALM      30.08S
MOORHEAD       CLEAR     70  61  73 CALM      30.06R
PARK RAPIDS    CLEAR     60  55  83 W5        30.06R
$$
MNZ006-009>011-018-025>026-310400-
   North Central Minnesota

CITY           SKY/WX    TMP DP  RH WIND       PRES   REMARKS
BAUDETTE       CLEAR     69  60  73 W3        30.01R
FLAG ISLAND    CLEAR     72  61  68 W8        29.98S
INTL FALLS     PTCLDY    63  60  90 CALM      29.99R
WASKISH        CLEAR     70  63  78 W7        30.02S
BIG FORK       CLEAR     61  55  82 SW1       30.03R
LONGVILLE      CLEAR     61  57  88 CALM      30.05R
GRAND RAPIDS   CLEAR     66  55  68 W6        30.03S
CRANE LAKE     PTCLDY    57  57 100 CALM      30.01R
ORR            MOCLDY    63  57  82 CALM      29.98R
COOK           MOCLDY    64  57  77 CALM      30.00S
$$
MNZ012-019>021-037-310400-
   Northeast Minnesota

CITY           SKY/WX    TMP DP  RH WIND       PRES   REMARKS
DULUTH         CLEAR     69  56  62 NW8       29.99R
ELY            CLEAR     57  55  94 CALM      30.00R
HIBBING        CLEAR     68  56  65 W6        30.01R
EVELETH        CLEAR     64  55  72 W5        30.01S
DULUTH HARBOR  CLOUDY    72  61  68 W8        29.98R
TWO HARBORS    PTCLDY    63  55  77 CALM      29.96S
SILVER BAY     CLEAR     63  61  94 NW3       29.96S
GRAND MARAIS     N/A     49  47  93 CALM      29.95R
G MARAIS ARPRT CLEAR     55  48  76 NW5       30.00R
$$
MNZ029>031-032-039>041-046>048-054>057-064-310400-
   West Central Minnesota

CITY           SKY/WX    TMP DP  RH WIND       PRES   REMARKS
FERGUS FALLS   CLEAR     70  55  60 CALM      30.06R
WHEATON        CLEAR     64  57  77 SW5       30.08S
MORRIS         CLEAR     66  57  72 CALM      30.07R
ALEXANDRIA     CLEAR     67  59  75 CALM      30.09R
ELBOW LAKE     FAIR      67  62  82 CALM      30.06S
WADENA         CLEAR     61  55  82 CALM      30.07R
GLENWOOD       CLEAR     66  55  68 CALM      30.08S
APPLETON       CLEAR     64  57  77 CALM      30.07S
BENSON         CLEAR     63  57  82 CALM      30.07S
ORTONVILLE     CLEAR     66  57  72 CALM      30.07S
MADISON        CLEAR     68  61  77 CALM      30.08S
WILLMAR        FAIR      66  57  72 CALM      30.09R
$$
MNZ033>034-036-042>043-049>051-058-059-310400-
   Central Minnesota

CITY           SKY/WX    TMP DP  RH WIND       PRES   REMARKS
ST CLOUD       CLEAR     68  55  63 NW5       30.05R
SAUK CENTRE    FAIR      63  57  81 W5        30.07S
PAYNESVILLE    CLEAR     59  55  89 CALM      30.08R
AITKIN         CLEAR     66  57  72 CALM      30.03R
PINE RIVER     CLEAR     64  57  77 CALM      30.08S
BRAINERD       CLEAR     67  58  72 W6        30.05R
STAPLES        CLEAR     61  54  77 W5        30.06S
LONG PRAIRIE   FAIR      61  54  77 CALM      30.07S
LITTLE FALLS   CLEAR     61  54  77 CALM      30.06R
LITCHFIELD     PTCLDY    68  63  83 W3        30.07S
BUFFALO        CLEAR     69  57  67 CALM      30.06R
MAPLE LAKE     CLEAR     64  59  83 CALM      30.06S
$$
MNZ037-044-045-052-053-310400-
   East Central Minnesota

CITY           SKY/WX    TMP DP  RH WIND       PRES   REMARKS
PRINCETON      CLEAR     63  57  82 CALM      30.05R
MORA           CLEAR     63  59  88 CALM      30.05R
CAMBRIDGE      CLEAR     70  55  60 W3        30.02S
RUSH CITY      CLEAR     64  59  82 CALM      30.03R
MOOSE LAKE     PTCLDY    64  55  72 W5        30.00S
HINCKLEY       FAIR      63  59  88 CALM      30.02S
CLOQUET        CLEAR     66  55  68 W6        30.01R
MCGREGOR       CLEAR     66  57  72 W3        30.04R
$$
MNZ071>073-080-081-089-090-097-098-310400-
   Southwest Minnesota

CITY           SKY/WX    TMP DP  RH WIND       PRES   REMARKS
MONTEVIDEO     CLEAR     66  54  63 CALM      30.08S
GRANITE FALLS  CLEAR     63  58  83 CALM      30.09R
CANBY          CLEAR     64  60  84 CALM      30.10R
MARSHALL       CLEAR     64  55  72 CALM      30.08S
REDWOOD FALLS  CLEAR     70  56  61 W3        30.08R
OLIVIA         CLEAR     64  57  77 CALM      30.07S
PIPESTONE      CLEAR     64  59  82 CALM      30.11S
WINDOM         CLEAR     64  61  88 CALM      30.10S
WORTHINGTON    CLEAR     66  55  68 CALM      30.12R
JACKSON        CLEAR     61  55  82 CALM      30.11R
TRACY          CLEAR     66  57  71 CALM      30.10R
SLAYTON        CLEAR     65  59  79 CALM      30.12R
$$
MNZ065>067-074>077-082>085-091>093-310400-
   South Central Minnesota

CITY           SKY/WX    TMP DP  RH WIND       PRES   REMARKS
MANKATO        CLEAR     66  54  63 W6        30.07S
NEW ULM        CLEAR     64  61  88 W3        30.08R
ST JAMES       CLEAR     63  57  82 CALM      30.09S
FAIRMONT       CLEAR     64  46  52 CALM      30.09R
GLENCOE        CLEAR     68  58  69 SW3       30.06S
FARIBAULT      CLEAR     68  57  68 W3        30.07R
OWATONNA       CLEAR     64  57  77 SW5       30.07S
WASECA         CLEAR     59  52  77 CALM      30.09S
ALBERT LEA     CLEAR     66  57  72 W3        30.08S
$$
MNZ078>079-086>088-094>096-310400-
   Southeast Minnesota

CITY           SKY/WX    TMP DP  RH WIND       PRES   REMARKS
ROCHESTER      CLEAR     64  58  80 W8        30.07R
RED WING       CLEAR     64  57  77 W3        30.02S
STANTON        CLEAR     66  58  76 S3        30.04R
DODGE CENTER   PTCLDY    64  57  77 W6        30.07S
WINONA         CLEAR     70  61  73 CALM      30.03R
AUSTIN         CLEAR     70  57  64 W5        30.07S
PRESTON        CLEAR     64  62  92 W7        30.07S
$$
ABBREVIATIONS USED IN REMARKS
   TC - TEMPERATURES IN CELSIUS
  WCI - WIND CHILL INDEX
   HX - HEAT INDEX
  VSB - VISIBILITY
$$


USA.gov is the U.S. government's official web portal to all federal, state and local government web resources and services.